Location: Creston
(40.9870°N, 81.8938°W)
Time: 23:44:45
(UTC+00:00)

CZ-4B R/B - Pass Details

Date: 29 October 2020
Orbit: 388 x 461 km, 97.6° (Epoch: 29 November)

Event Time Altitude Azimuth Distance (km) Brightness Sun altitude
Rises 23:20:38 0° 6° (N) 2,374 4.9 -10.8°
Reaches altitude 10° 23:22:42 10° 1° (N) 1,492 3.9 -11.2°
Maximum altitude 23:25:46 48° 286° (WNW) 539 2.2 -11.7°
Drops below altitude 10° 23:28:46 10° 210° (SSW) 1,445 4.5 -12.3°
Sets 23:30:44 0° 205° (SSW) 2,289 5.5 -12.7°
